Cherry Point, NC

5:10 AM EST on November 23, 2017 (GMT -0500)
Cherry Point Marine Corps Air Station

Weather History for KNKT - January, 2014

Change the Weather History Date:

Tuesday, January 7, 2014

  Actual Average Record
Temperature  
Mean Temperature 24 °F -  
Max Temperature 32 °F 55 °F 73 °F (1998)
Min Temperature 17 °F 34 °F 17 °F (2014)
Degree Days  
Heating Degree Days 40    
Moisture  
Dew Point 0 °F    
Average Humidity 38    
Maximum Humidity 71    
Minimum Humidity 27    
Precipitation  
Precipitation 0.00 in - - ()
Sea Level Pressure  
Sea Level Pressure 30.39 in    
Wind  
Wind Speed 15 mph (NW)    
Max Wind Speed 22 mph    
Max Gust Speed 29 mph    
Visibility 10 miles    
Events      
Averages and records for this station are not official NWS values.
T = Trace of Precipitation, MM = Missing Value Source: NWS Daily Summary

Daily Weather History Graph

Daily Weather History Graph

Search for Another Location

Airport or City:

Trip Planner

Search our weather history database for the weather conditions in past years. The results will help you decide how hot, cold, wet, or windy it might be!

Date:

Astronomy

Jan. 07, 2014 Rise Set
Actual Time 7:15 AM EST 5:12 PM EST
Civil Twilight 6:48 AM EST 5:39 PM EST
Nautical Twilight 6:16 AM EST 6:11 PM EST
Astronomical Twilight 5:46 AM EST 6:41 PM EST
Moon 11:20 AM EST (1/7) No Moon Set
Length of Visible Light 10h 51m
Length of Day
9h 56m
Waxing Crescent, 45% of the Moon is Illuminated
Jan 7
Waxing Crescent
Jan 7
First Quarter
Jan 15
Full
Jan 24
Last Quarter
Jan 30
New

Hourly Weather History & Observations

Time (EST) Temp. Windchill Dew Point Humidity Pressure Visibility Wind Dir Wind Speed Gust Speed Precip Events Conditions
12:06 AM 32.0 °F 20.5 °F 12.0 °F 44% 30.11 in 10.0 mi WNW 18.4 mph 27.6 mph N/A   Clear
12:54 AM 30.0 °F 19.1 °F 7.0 °F 38% 30.12 in 10.0 mi WNW 15.0 mph - N/A   Clear
1:54 AM 27.0 °F 12.8 °F 1.9 °F 34% 30.17 in 10.0 mi NW 21.9 mph 26.5 mph N/A   Clear
2:54 AM 24.1 °F 10.6 °F -0.9 °F 34% 30.20 in 10.0 mi NW 17.3 mph - N/A   Clear
3:54 AM 21.9 °F 7.3 °F -2.0 °F 35% 30.25 in - WNW 18.4 mph 26.5 mph N/A   Clear
4:54 AM 19.9 °F 4.8 °F -4.0 °F 35% 30.30 in - NW 18.4 mph - N/A   Clear
5:54 AM 18.0 °F 3.1 °F -4.0 °F 38% 30.35 in 10.0 mi WNW 16.1 mph - N/A   Clear
6:54 AM 17.1 °F 0.1 °F -4.0 °F 39% 30.38 in 10.0 mi NW 20.7 mph 26.5 mph N/A   Clear
7:54 AM 17.1 °F 0.1 °F -5.1 °F 37% 30.40 in 10.0 mi NW 20.7 mph 25.3 mph N/A   Clear
8:54 AM 18.0 °F 5.4 °F -4.0 °F 38% 30.42 in 10.0 mi NW 11.5 mph - N/A   Clear
9:54 AM 21.0 °F 8.1 °F -4.0 °F 33% 30.46 in 10.0 mi WNW 13.8 mph - N/A   Clear
10:54 AM 21.9 °F 7.3 °F -5.1 °F 30% 30.46 in 10.0 mi NW 18.4 mph 28.8 mph N/A   Clear
11:54 AM 24.1 °F 10.6 °F -2.9 °F 31% 30.44 in 10.0 mi North 17.3 mph - N/A   Clear
12:54 PM 25.0 °F 13.1 °F -2.0 °F 31% 30.41 in 10.0 mi NNW 13.8 mph - N/A   Clear
1:54 PM 27.0 °F 17.3 °F -0.9 °F 30% 30.42 in 10.0 mi NNW 10.4 mph 18.4 mph N/A   Clear
2:54 PM 27.0 °F 18.7 °F -2.9 °F 27% 30.42 in 10.0 mi North 8.1 mph - N/A   Partly Cloudy
3:54 PM 27.0 °F 17.3 °F -2.0 °F 29% 30.42 in 10.0 mi WNW 10.4 mph - N/A   Partly Cloudy
4:54 PM 25.0 °F 17.1 °F -2.0 °F 31% 30.44 in 10.0 mi NW 6.9 mph - N/A   Mostly Cloudy
5:54 PM 24.1 °F 14.4 °F -0.9 °F 34% 30.46 in 10.0 mi WNW 9.2 mph - N/A   Scattered Clouds
6:54 PM 23.0 °F 13.9 °F -0.0 °F 37% 30.49 in 10.0 mi NW 8.1 mph - N/A   Mostly Cloudy
7:54 PM 23.0 °F 13.9 °F 1.0 °F 39% 30.52 in 10.0 mi WNW 8.1 mph - N/A   Scattered Clouds
8:54 PM 21.9 °F 13.4 °F 3.0 °F 44% 30.53 in 10.0 mi West 6.9 mph - N/A   Partly Cloudy
9:54 PM 19.9 °F 14.9 °F 6.1 °F 55% 30.54 in 10.0 mi WSW 3.5 mph - N/A   Clear
10:54 PM 18.0 °F - 8.1 °F 65% 30.52 in 10.0 mi Calm Calm - N/A   Clear
11:54 PM 18.0 °F - 10.0 °F 71% 30.53 in 10.0 mi Calm Calm - N/A   Clear